Theta_e
311 311 311 311 311 311 310 310 310 310 310 309 309 308 308 307 307 306 306 308 308 307 306 308 308 309 311 315 315 312 311 311 311 314 317 317 318 320 320 323 330 333 332 333 335 338 340 342 343 343 342 341 341 341 340 340 339 339 339 339 339 339 338 338 338 337 336 336 335 334 334 333 332 331 331 333 333 333 333 331 330 330 331 330 329 327 327
312 312 312 312 311 311 311 310 309 310 310 310 309 309 308 308 308 307 307 308 308 307 307 307 309 310 312 314 314 313 312 312 312 314 317 317 317 319 320 322 327 332 333 332 335 338 339 341 342 342 342 341 341 341 340 340 339 339 339 339 339 339 338 338 338 337 336 335 335 334 333 332 332 331 331 332 332 332 332 330 329 330 329 329 328 327 327
313 313 314 313 312 311 311 311 310 310 311 311 311 312 311 310 310 308 308 308 308 308 309 310 313 315 314 315 316 315 315 316 316 316 316 316 317 319 320 321 325 331 333 332 335 338 339 340 342 342 342 342 341 341 340 340 339 339 339 339 339 339 338 338 337 337 336 335 334 334 333 332 331 331 332 332 331 330 330 329 329 329 329 329 328 327 327
314 314 315 315 313 312 312 312 312 312 313 313 313 314 313 313 312 311 310 309 307 308 314 317 318 319 319 320 321 319 320 320 320 319 318 317 317 318 320 320 323 330 334 333 334 337 338 341 343 342 342 342 341 341 341 340 339 339 339 339 338 338 338 338 337 336 335 335 334 333 332 332 331 331 332 330 330 328 327 327 327 327 327 328 327 327 326
314 314 315 315 314 314 314 314 313 313 314 314 314 314 314 313 312 312 311 310 309 313 318 319 319 321 322 324 323 321 323 323 322 321 320 318 317 318 320 321 321 327 333 334 334 336 338 341 342 342 341 342 342 341 341 340 340 339 339 339 339 338 338 337 337 336 335 334 333 333 333 332 331 331 330 329 328 326 325 326 327 326 327 327 327 326 325
314 315 315 314 315 316 316 313 311 312 313 314 315 316 316 315 313 312 313 313 315 318 319 319 319 320 322 322 322 322 323 323 322 322 320 318 319 321 323 323 322 324 330 334 335 336 340 341 342 342 342 342 342 341 341 341 340 339 339 339 338 338 338 337 336 336 335 334 334 333 333 332 331 330 329 328 327 325 325 325 325 325 325 326 326 326 325
314 315 315 316 318 317 315 312 311 311 312 313 313 313 313 314 315 317 318 318 318 319 319 319 318 319 320 321 321 322 323 324 323 321 320 320 323 325 325 325 325 324 327 333 336 337 339 341 341 342 342 342 342 342 341 340 340 339 339 339 338 338 338 337 336 336 335 334 334 333 333 332 331 330 329 328 327 326 326 326 325 324 325 325 326 326 325
314 315 317 319 319 316 313 313 313 313 313 314 314 313 314 315 317 319 319 318 318 318 318 318 318 319 321 321 322 323 323 322 321 320 321 324 325 326 325 325 325 324 324 329 336 338 339 340 341 341 342 342 342 342 341 340 340 339 339 339 338 338 337 337 336 336 335 334 334 333 332 331 330 329 328 328 327 325 325 324 323 324 325 325 326 326 325
315 316 317 318 317 315 314 314 313 313 314 315 316 316 317 317 317 318 319 318 318 318 317 317 318 320 322 323 324 324 321 319 319 321 323 324 324 324 324 324 325 324 323 327 336 339 339 340 340 341 341 341 342 341 341 340 340 339 339 338 338 338 337 337 336 336 335 334 333 333 332 330 329 329 328 327 326 324 324 322 321 321 323 325 327 326 325
313 314 317 318 317 317 315 313 312 312 313 315 316 316 318 319 318 317 318 319 319 319 317 317 319 322 324 326 326 322 318 319 321 322 323 323 323 324 324 324 325 325 324 328 335 339 339 340 341 341 341 341 341 341 341 340 340 339 339 338 338 337 337 337 336 336 335 334 333 332 331 330 329 328 328 327 325 324 324 323 321 321 322 325 327 326 325
311 312 316 319 319 317 315 312 311 312 312 314 316 318 319 320 317 316 318 319 319 320 318 318 321 323 324 326 326 323 321 321 321 322 322 323 322 323 324 325 326 326 327 331 337 339 339 340 340 340 341 341 341 341 340 340 340 339 338 338 338 337 337 336 336 336 335 334 333 332 331 330 329 328 328 327 326 325 324 323 322 322 322 325 326 325 324
310 311 313 316 317 317 315 313 312 312 312 314 317 319 319 317 314 315 318 319 319 320 319 319 321 322 321 322 323 322 321 321 321 322 322 322 322 322 324 326 326 326 329 334 337 338 339 340 340 340 340 340 340 340 340 340 340 339 339 338 338 337 337 336 336 335 335 334 333 332 331 330 328 328 327 326 325 325 324 324 323 321 322 324 325 324 324
309 310 311 312 315 315 314 312 311 312 313 315 317 317 316 314 314 316 318 318 319 320 319 318 320 321 321 321 321 320 320 320 321 322 322 321 322 323 324 325 326 328 332 336 337 339 339 339 340 340 340 340 340 340 339 340 340 339 339 338 337 337 337 336 336 335 334 333 333 332 331 330 328 327 327 326 325 325 324 323 322 321 321 323 324 324 324
308 309 309 310 313 314 312 311 311 312 314 315 315 313 313 313 315 316 317 317 319 320 319 319 319 320 320 320 320 320 320 321 322 322 322 322 323 323 323 325 327 330 334 337 338 339 339 339 339 339 339 340 339 339 339 339 339 339 339 338 337 337 337 336 335 335 334 333 332 332 331 329 328 327 327 327 326 325 324 322 321 321 320 320 320 320 321
308 308 309 311 313 313 311 310 311 312 312 313 313 312 312 313 315 316 316 316 317 319 320 320 319 319 320 320 320 320 320 321 322 323 323 323 323 323 323 325 327 330 333 336 337 338 338 338 339 339 339 339 338 337 338 338 338 339 338 338 337 337 336 335 335 334 333 332 332 332 331 329 328 327 326 326 325 325 323 321 320 319 318 317 316 315 315
308 308 309 309 310 309 310 311 311 311 312 312 312 313 313 313 315 315 316 316 316 318 319 320 320 320 319 320 320 320 320 321 322 323 323 323 323 323 323 324 326 328 332 335 337 337 338 338 338 338 338 338 336 337 337 338 338 338 338 337 337 336 335 335 334 333 333 332 331 331 330 329 328 327 326 325 325 324 323 321 319 318 317 317 316 315 313
307 307 307 307 307 307 309 311 311 310 311 312 313 313 313 314 314 314 314 315 316 317 319 320 320 320 319 319 319 320 321 322 323 323 323 323 323 323 323 324 324 327 331 335 336 336 337 337 338 338 338 337 336 337 338 338 337 337 336 335 333 333 332 332 332 332 332 331 329 329 329 328 327 326 325 324 323 322 321 320 319 318 318 318 317 315 312
307 307 307 307 308 308 308 309 309 310 310 311 312 313 313 314 314 313 314 315 317 318 319 320 320 319 319 319 319 320 321 322 323 323 323 323 324 324 324 324 324 326 330 334 335 336 337 337 337 338 338 338 337 337 337 337 336 336 335 333 331 330 331 330 331 330 329 327 327 328 327 327 327 326 324 323 321 321 320 320 320 319 318 317 316 315 313
308 309 309 308 308 308 308 308 309 309 309 310 310 312 313 313 313 314 315 316 318 319 320 320 319 319 318 318 318 320 321 323 323 323 323 324 324 324 325 324 323 326 330 332 333 335 336 336 337 338 338 338 337 336 336 335 335 334 332 331 330 330 330 330 330 329 328 326 327 327 327 326 326 324 323 322 321 319 319 319 319 318 317 316 315 314 313
308 309 308 307 308 308 308 308 309 309 309 309 309 310 311 313 313 313 314 316 318 319 319 319 319 318 318 317 318 320 321 323 324 323 323 323 324 324 325 324 323 326 329 330 332 334 335 335 336 337 337 337 336 335 334 334 334 333 331 330 329 329 329 330 329 329 328 327 327 327 326 326 325 323 322 323 321 319 320 320 319 318 316 315 315 314 313
308 308 308 308 309 309 309 308 309 308 308 309 309 309 310 311 312 312 313 315 317 318 319 319 318 318 318 317 317 320 322 323 324 323 322 323 323 324 324 324 324 325 327 329 332 333 334 335 335 336 336 336 335 334 333 333 333 332 330 329 329 330 329 329 328 328 327 326 326 326 325 325 324 323 322 322 321 321 321 322 322 322 320 317 316 316 315
307 307 307 308 309 309 309 308 308 308 308 308 309 309 309 310 311 313 313 315 316 317 318 319 318 318 318 317 317 320 323 323 323 322 322 323 323 323 324 324 324 325 325 327 330 332 332 333 334 335 335 335 333 333 333 332 332 332 329 328 329 329 329 328 327 327 326 326 326 325 323 322 322 321 320 321 321 321 321 320 321 322 323 322 321 321 320
306 305 305 306 307 307 307 307 307 307 308 308 308 308 309 310 311 312 313 315 316 317 318 318 318 318 318 317 317 320 323 323 322 322 322 323 323 323 323 323 324 324 323 324 327 330 331 332 332 333 333 333 332 332 332 332 332 331 329 329 329 329 329 328 327 326 325 325 325 324 323 321 319 318 317 318 319 319 319 318 318 319 321 322 323 323 323
304 304 304 304 305 305 305 306 306 307 307 307 307 307 308 310 310 312 313 314 316 318 318 318 318 317 317 318 319 320 321 322 322 321 322 322 322 322 323 323 323 323 323 323 324 326 328 329 330 331 332 331 331 332 332 332 332 331 329 329 329 329 328 327 325 325 325 324 323 322 320 319 317 316 315 314 314 315 316 317 317 318 319 320 321 321 322
302 302 302 303 303 304 304 305 306 306 306 306 306 307 309 309 310 311 313 314 316 318 318 317 317 317 317 318 319 319 320 321 321 320 321 322 322 322 323 323 323 324 324 323 323 324 325 327 328 329 330 330 330 331 331 331 331 330 329 329 329 328 327 325 323 323 324 323 322 320 319 317 316 316 315 314 312 311 312 314 315 316 317 318 319 319 319
301 301 301 301 302 303 304 305 305 305 305 305 306 307 308 309 310 311 312 314 317 317 316 316 316 316 317 318 318 318 320 321 320 320 321 322 322 323 322 322 323 324 324 324 324 323 324 325 326 327 328 328 329 330 331 331 330 330 329 329 328 327 326 324 322 322 322 321 320 319 318 317 316 316 315 314 313 311 310 311 312 312 313 314 315 316 317
300 300 300 301 302 303 303 303 304 304 304 305 306 307 308 309 310 311 312 314 315 315 315 316 316 316 317 319 319 319 320 320 320 320 321 322 322 322 322 321 322 322 323 323 323 323 323 324 324 325 325 326 327 328 329 329 330 329 328 327 326 326 325 324 322 321 321 320 319 318 317 317 317 316 315 314 313 312 311 311 310 310 311 312 312 313 314
299 299 300 300 301 302 302 303 303 303 304 305 306 306 308 309 310 310 312 313 313 314 314 315 315 315 316 318 319 319 321 321 321 321 321 321 321 321 321 321 321 321 321 321 321 322 323 323 323 323 323 324 325 326 327 327 327 326 325 325 324 322 322 321 321 320 320 319 319 318 317 316 315 314 313 312 312 312 312 312 311 309 309 310 311 311 312
299 299 299 299 300 301 302 302 303 302 303 304 305 306 306 308 308 310 311 312 312 313 313 313 314 315 316 317 317 318 320 321 321 321 320 320 319 319 320 321 321 320 319 319 319 320 321 321 322 322 321 322 324 324 325 324 323 323 323 322 320 318 318 319 319 318 318 317 317 317 316 315 314 313 312 312 312 312 311 310 310 308 308 309 310 309 309
299 299 299 299 300 301 302 302 302 302 302 303 304 304 305 306 308 309 310 310 311 312 312 312 313 315 315 316 316 316 318 320 321 320 319 319 318 317 318 320 320 320 319 318 318 318 319 319 320 320 320 320 321 322 323 322 321 321 320 319 318 317 318 318 318 317 316 315 315 315 314 314 313 313 312 312 311 311 310 309 309 308 308 309 308 307 307
298 298 299 300 300 301 301 301 301 302 301 302 303 304 304 305 307 308 310 310 311 312 312 312 314 315 314 314 315 315 316 318 319 319 319 319 318 317 317 318 319 319 318 318 318 318 318 317 317 317 318 318 319 320 320 320 319 318 317 316 316 317 318 317 316 315 315 314 313 313 313 313 312 312 312 311 310 310 309 308 308 307 307 307 307 306 307
298 298 299 299 300 300 300 300 300 301 301 301 302 303 303 304 306 308 309 310 310 311 311 312 314 315 313 313 315 315 315 317 318 318 319 319 318 317 318 317 317 317 317 317 317 317 317 316 315 315 316 317 317 317 317 317 316 315 315 315 315 315 316 316 315 314 314 314 313 312 312 311 311 310 310 310 310 309 308 307 307 307 307 307 306 306 307
298 298 298 299 298 299 299 299 299 299 300 300 302 302 303 303 305 307 309 309 309 310 311 312 313 314 313 313 316 316 316 316 317 318 319 319 319 318 318 318 317 316 316 316 316 316 316 316 316 316 317 317 316 316 315 315 314 313 313 313 313 313 314 314 314 313 313 313 312 312 312 311 311 311 311 311 310 310 309 309 308 307 307 307 307 307 308
297 297 297 298 298 298 298 298 298 299 299 299 301 302 302 303 304 306 308 308 309 310 311 312 313 312 312 313 316 317 316 316 317 318 318 319 319 318 318 318 318 316 315 315 315 315 315 315 315 315 315 315 315 315 314 314 313 312 312 312 312 312 312 312 313 313 312 311 311 312 312 311 311 311 311 311 311 310 310 309 308 307 307 306 306 307 308
297 297 297 298 298 298 298 297 298 298 298 299 300 301 301 302 304 306 307 308 310 311 312 312 312 311 312 314 315 316 316 314 314 315 316 316 317 318 318 319 319 317 316 315 314 315 316 316 316 316 315 314 314 315 314 313 313 312 312 312 312 312 311 311 312 312 311 310 310 310 310 309 310 310 311 311 310 310 309 308 308 308 306 305 305 306 307
297 296 296 297 297 298 297 297 297 297 298 298 299 300 300 302 305 307 308 310 311 311 312 311 310 311 313 314 313 313 313 312 311 312 313 313 315 317 318 318 318 318 318 316 313 314 317 318 318 319 318 315 314 314 314 314 313 312 312 312 311 311 311 310 310 310 310 309 309 309 309 309 310 310 310 309 309 308 307 307 307 308 307 306 306 306 305
297 296 296 296 296 297 297 297 297 297 297 298 299 299 300 302 305 308 309 310 310 311 311 310 309 310 312 311 310 311 312 311 311 312 313 313 314 316 316 316 316 317 318 316 313 313 315 316 317 319 319 316 314 313 314 315 313 312 311 310 310 310 309 309 309 308 308 308 308 309 310 309 309 309 309 309 308 308 307 307 308 308 308 307 307 306 305
296 296 296 295 295 296 296 296 296 297 297 298 299 300 301 303 306 308 309 310 310 310 309 308 309 309 310 310 312 312 311 311 311 312 313 313 313 314 313 312 311 312 314 314 313 313 314 315 316 318 319 317 314 313 314 315 315 313 312 311 310 309 309 309 308 308 307 307 308 309 310 309 309 308 309 309 309 308 308 308 308 307 307 306 306 305 305
295 295 295 295 295 295 295 296 296 297 297 298 299 300 302 304 306 308 309 310 310 309 307 307 308 309 311 314 315 313 310 309 310 311 311 311 312 313 313 310 309 310 312 313 313 314 315 315 315 316 317 316 313 312 313 316 317 315 314 314 312 311 310 309 309 308 308 308 309 310 310 309 309 308 308 308 308 308 308 308 308 307 306 306 305 305 304
293 294 294 294 294 295 295 296 297 297 297 298 299 300 302 304 306 308 309 310 311 309 306 305 307 311 313 314 313 310 308 308 308 309 310 311 312 314 315 312 311 313 316 315 314 315 316 316 315 314 313 314 314 311 311 314 316 314 313 313 313 311 310 310 309 308 308 309 309 309 309 308 308 308 308 308 308 308 308 309 308 308 307 306 305 304 304
293 294 294 294 294 295 295 296 296 297 298 298 299 300 303 305 307 309 309 310 310 308 305 305 307 310 310 309 308 308 308 307 306 307 309 311 312 316 317 313 311 314 317 317 316 317 317 317 316 314 313 313 314 311 310 312 314 312 310 311 312 311 311 310 310 309 309 309 309 309 309 308 308 308 308 308 307 307 307 308 308 307 306 306 305 304 304
293 294 293 294 294 295 295 296 296 297 297 298 299 301 304 307 308 309 309 309 307 306 304 305 307 307 306 306 307 309 309 308 306 306 307 306 307 311 313 311 309 312 316 317 317 318 318 317 316 316 314 313 313 312 312 313 313 312 311 311 312 312 311 311 311 310 310 310 310 309 309 308 308 307 307 307 307 307 306 307 306 306 306 306 306 305 305
293 293 293 294 294 295 295 296 296 297 298 299 301 304 307 308 308 308 308 307 306 305 305 306 307 307 306 307 309 310 309 309 308 308 307 305 304 305 306 307 308 311 314 315 317 318 317 316 316 316 315 314 314 314 314 314 314 314 313 313 313 312 311 311 311 310 310 310 310 309 309 309 308 308 308 307 307 307 307 307 307 306 306 306 306 306 305
292 293 293 294 294 294 295 295 296 297 299 300 302 306 308 307 306 306 306 306 305 305 305 306 307 307 306 307 307 307 307 306 306 308 310 311 308 305 305 307 309 311 312 313 315 316 317 316 316 316 315 315 315 315 315 314 314 314 314 313 313 312 311 310 310 309 309 309 309 309 309 309 308 308 308 308 307 307 307 307 307 307 306 306 306 305 305
292 292 293 293 293 293 294 295 296 297 298 300 304 306 306 305 304 304 305 306 305 305 305 306 306 306 305 305 304 303 302 302 302 304 308 310 308 305 305 308 311 311 311 312 313 314 315 316 315 315 314 314 314 315 315 314 314 314 313 312 312 312 311 310 310 310 310 310 310 310 309 309 309 309 309 308 308 308 308 308 308 307 307 307 306 305 305
291 292 292 292 292 293 294 294 295 297 299 302 305 307 305 303 303 304 305 305 305 304 304 304 304 304 305 305 305 305 304 303 301 301 302 304 303 302 304 307 310 311 312 312 311 311 312 313 314 314 314 313 313 313 314 313 313 313 313 312 312 311 311 310 310 310 310 310 309 309 309 308 308 308 308 308 308 308 308 308 308 308 308 307 306 305 305
291 291 291 292 292 293 293 294 295 297 299 301 303 303 303 303 303 304 304 303 303 303 302 302 302 302 303 304 305 306 306 306 304 301 301 302 303 303 304 305 307 308 309 310 310 309 310 311 311 312 313 313 312 313 313 312 311 311 311 312 311 311 311 310 310 310 309 309 309 308 308 307 306 306 306 306 305 305 306 307 308 308 307 307 306 305 304
290 290 291 291 291 292 293 294 295 296 297 298 298 300 302 303 302 303 303 302 301 301 300 300 300 300 301 301 302 303 304 306 305 302 300 301 303 303 303 304 305 306 307 306 306 307 308 310 310 311 311 312 312 312 312 312 312 312 312 312 312 311 311 310 310 310 309 309 309 308 307 306 305 305 305 305 304 304 305 306 307 307 307 307 306 306 305
289 290 290 290 291 292 293 293 294 294 295 295 296 299 301 302 301 301 301 301 299 298 298 298 298 299 299 299 299 300 301 302 302 300 299 300 302 302 302 303 304 305 306 305 304 304 306 307 309 309 310 311 311 311 311 311 311 311 311 311 311 311 311 311 310 310 309 309 309 308 308 307 306 305 305 305 304 304 305 306 307 306 306 306 306 305 305
289 289 290 290 290 291 292 292 293 293 293 294 295 297 300 301 300 299 299 299 299 297 296 296 296 296 297 297 297 297 297 298 298 298 298 299 300 301 301 302 302 303 304 305 304 304 304 305 306 307 308 308 309 309 309 309 309 309 309 309 309 310 310 310 310 310 309 309 308 308 308 307 307 307 306 306 305 305 305 306 306 305 305 305 304 304 304
288 289 289 289 290 290 291 291 291 292 292 293 293 295 297 298 298 297 297 298 299 298 297 295 294 294 294 295 295 295 295 296 296 296 297 297 297 297 297 298 299 300 301 302 301 301 302 302 303 304 305 305 305 305 305 306 306 306 306 307 307 307 308 308 308 308 308 308 307 307 307 306 306 306 305 305 305 306 305 305 305 305 305 304 304 303 303
288 288 288 289 289 290 290 290 290 291 291 292 292 293 294 295 296 295 295 295 296 296 296 295 293 292 292 292 292 292 293 294 294 294 295 295 295 295 295 296 296 296 296 296 296 297 298 299 300 301 301 302 301 301 302 303 303 303 303 303 304 305 305 306 306 306 306 305 305 305 305 305 305 305 305 305 305 305 305 305 305 305 304 304 304 303 303
Wind_Speed
13 12 10 10 11 12 12 12 12 10 8 9 12 15 13 7 8 15 17 11 12 18 19 16 13 8 6 8 11 15 17 17 15 12 12 17 17 13 14 14 11 9 9 12 15 16 17 21 24 27 30 31 32 33 33 34 34 34 36 35 35 37 38 36 33 31 31 31 28 27 27 28 27 24 25 32 35 34 34 34 34 34 33 33 33 32 29
13 11 10 10 12 13 12 12 13 12 11 12 13 14 15 14 16 20 21 18 18 19 17 15 12 9 6 7 11 15 17 18 17 14 14 16 14 13 13 11 8 8 10 12 15 16 17 20 24 27 29 31 31 31 31 32 32 33 34 33 33 33 33 32 33 31 29 27 28 32 33 32 29 27 28 34 35 34 34 35 35 35 34 33 33 31 29
9 6 5 7 9 12 11 10 11 11 11 12 13 14 15 15 17 19 19 19 20 15 9 9 11 9 6 8 12 16 17 16 16 17 17 16 14 13 11 8 8 8 10 12 14 17 19 21 25 28 30 31 32 32 32 32 33 34 34 32 31 31 30 31 33 30 27 28 32 36 35 31 30 32 34 35 35 34 34 34 35 34 34 33 32 30 28
6 0 1 3 2 6 7 8 9 10 11 12 12 12 12 13 15 16 15 15 15 9 6 8 12 10 8 10 13 15 14 14 15 16 18 17 15 14 11 8 9 8 9 12 15 17 18 20 25 29 30 31 31 32 33 33 33 34 33 33 33 32 30 31 32 31 30 31 33 35 34 33 33 34 34 34 34 32 32 34 35 34 34 33 31 30 28
5 2 4 3 4 4 1 3 3 6 9 11 12 11 11 12 12 11 11 11 10 9 10 12 13 12 9 9 11 13 13 14 15 16 17 18 16 15 12 9 9 9 6 10 13 15 16 20 26 30 31 30 31 33 35 35 35 35 35 35 35 33 31 32 33 33 33 31 32 35 36 34 34 34 32 29 27 26 28 34 35 34 34 33 31 30 28
6 8 6 0 3 4 3 1 1 2 7 10 11 12 12 11 9 9 10 11 11 11 11 13 13 13 13 11 13 14 12 10 13 16 16 16 16 14 12 10 9 8 5 6 11 15 18 22 26 30 31 31 32 33 34 34 34 35 35 35 34 32 32 34 34 33 32 30 32 35 36 34 34 36 34 27 23 24 29 35 36 35 35 34 32 31 29
5 8 5 1 0 3 1 3 4 6 10 12 12 14 15 13 10 8 8 10 12 12 13 14 14 14 15 15 16 15 12 10 13 15 15 15 15 14 12 11 11 9 7 5 8 14 19 22 25 27 29 28 26 26 28 30 30 30 33 35 34 32 32 34 34 33 32 31 31 34 37 38 37 37 35 30 27 29 33 36 37 37 37 36 33 31 29
4 6 4 3 2 1 3 5 5 6 9 9 8 11 11 9 5 6 10 11 13 14 15 14 13 13 15 15 14 12 11 11 11 11 14 16 15 14 13 13 12 11 10 8 10 14 18 22 25 27 28 27 24 23 27 28 28 30 32 32 31 30 31 33 33 33 34 33 33 36 38 38 37 36 35 34 34 34 36 37 37 37 37 36 34 31 28
4 5 5 2 2 2 3 4 6 8 10 10 7 5 3 2 2 7 13 13 13 15 16 15 13 13 13 11 10 7 8 10 9 11 15 16 15 14 14 14 13 12 13 12 12 17 19 22 25 27 28 29 27 26 27 28 28 30 29 27 29 31 32 34 34 33 35 35 36 38 37 36 37 35 34 36 36 36 36 36 36 35 35 35 33 30 28
5 6 5 2 2 4 5 9 13 14 15 13 6 3 1 2 3 8 14 14 13 13 15 15 14 12 9 7 7 4 4 8 12 15 15 14 14 14 14 14 13 12 13 13 13 17 20 22 25 27 28 30 29 28 28 29 29 28 26 26 29 31 33 35 35 36 38 38 37 38 37 36 35 31 32 36 37 37 38 36 34 33 34 35 34 30 28
6 6 5 4 3 2 3 11 18 20 19 14 3 3 2 1 5 12 16 16 14 11 12 14 12 8 6 6 7 5 8 14 16 16 15 14 15 15 15 15 14 12 12 11 13 17 20 24 26 27 28 29 28 26 27 28 27 25 26 27 30 33 35 35 36 36 37 37 37 37 37 37 33 28 32 39 39 37 37 35 33 33 34 35 36 33 30
7 7 5 3 2 2 4 11 18 20 19 12 4 2 2 6 14 16 14 16 15 11 11 13 10 5 3 7 11 12 16 18 16 15 15 16 16 16 16 16 14 10 9 10 12 15 20 24 26 28 29 29 28 26 27 28 26 25 27 31 33 35 35 34 35 36 36 36 38 39 39 39 35 31 34 39 39 38 37 35 31 32 34 35 36 34 31
8 8 6 4 2 2 5 12 17 18 16 8 4 5 7 12 17 16 14 16 15 11 11 11 9 6 6 10 15 17 18 17 16 14 13 13 14 15 16 17 12 7 7 10 14 16 20 23 24 27 28 27 26 26 25 25 26 27 29 32 34 34 34 33 33 35 36 36 37 39 39 37 35 35 37 38 38 37 36 32 29 30 34 36 36 34 33
7 7 6 5 2 0 8 16 16 11 8 5 5 9 12 14 16 16 16 16 13 12 12 9 9 12 13 14 16 17 16 16 15 15 13 12 12 14 16 16 9 3 4 8 14 16 19 22 24 26 27 24 22 22 20 22 27 29 28 29 31 31 31 33 33 34 35 36 36 37 37 35 35 36 35 36 38 36 31 29 29 31 33 33 32 32 33
6 6 6 5 3 4 12 17 13 7 7 6 8 12 14 15 15 15 15 15 13 12 13 12 13 17 18 17 16 15 15 15 14 14 14 11 10 11 13 14 10 4 3 6 11 14 17 21 23 24 24 21 19 18 19 23 27 27 26 27 28 29 31 33 34 34 35 37 38 38 37 38 37 32 28 32 35 30 25 25 28 30 30 29 26 26 29
5 6 6 4 6 9 11 10 8 8 9 8 8 11 12 14 14 12 10 13 14 13 13 15 18 19 18 16 15 14 15 14 13 14 12 10 9 10 10 12 13 7 3 5 8 12 16 19 21 23 22 20 19 19 21 23 24 24 26 27 27 27 29 31 33 36 37 39 39 39 38 39 36 30 27 30 29 23 21 24 27 28 27 25 21 19 22
3 6 8 8 10 11 10 7 8 11 12 10 9 10 10 11 12 11 10 13 15 14 15 16 17 18 18 16 15 13 13 14 14 14 12 9 9 9 8 11 14 9 3 5 7 10 14 18 21 22 22 21 20 20 23 25 27 27 27 26 25 24 24 25 29 33 35 36 37 37 35 35 36 33 30 27 24 21 20 23 26 25 23 21 20 20 22
6 8 10 11 12 13 14 13 10 9 10 10 9 9 10 10 12 12 11 12 13 14 15 16 16 17 17 17 15 13 12 13 12 12 11 9 9 9 8 10 13 11 5 5 7 9 13 18 20 22 23 24 22 21 24 28 32 34 33 30 31 32 29 27 26 24 23 26 28 29 30 32 33 31 26 22 21 21 20 22 25 24 21 21 21 20 21
9 7 8 12 16 18 19 17 13 11 13 14 12 11 11 12 13 14 13 13 13 12 13 14 15 15 16 16 14 11 11 11 11 11 10 9 8 9 8 8 10 10 5 5 7 8 11 16 19 20 22 24 23 24 28 31 32 32 30 29 31 34 33 31 30 27 27 30 30 28 29 31 28 24 23 24 24 24 24 26 25 22 21 22 21 20 21
9 10 13 18 20 19 14 11 9 11 15 19 19 16 14 14 15 15 13 12 12 11 11 12 13 14 14 13 12 11 10 9 9 9 8 8 8 9 9 7 7 7 5 4 7 9 11 14 18 19 20 20 20 22 26 28 28 27 28 29 31 33 34 36 37 37 36 38 36 31 31 32 29 25 26 26 26 28 33 34 30 26 26 25 23 25 28
9 10 13 18 19 15 11 11 14 16 18 21 23 21 19 19 20 19 18 16 13 11 11 11 11 13 13 11 11 11 9 8 8 8 8 8 9 9 9 8 7 6 5 4 5 9 11 13 16 18 18 18 20 20 21 24 25 24 28 32 33 35 37 36 37 38 37 37 36 33 31 31 30 28 28 28 29 34 38 40 38 36 35 31 28 31 33
7 9 13 16 14 12 14 19 22 22 20 21 22 22 22 22 21 20 20 19 17 15 12 9 9 11 11 11 11 11 8 8 10 9 9 9 9 9 10 9 7 6 5 4 4 7 11 12 13 16 17 18 20 21 21 24 25 25 28 31 32 35 38 36 36 38 36 36 36 35 32 31 28 25 25 27 30 33 35 35 36 37 36 33 32 34 34
8 12 14 13 10 11 15 19 22 21 19 19 21 23 22 22 21 20 18 17 18 17 15 10 8 9 11 10 10 9 7 8 10 10 9 8 8 9 10 9 7 7 6 4 3 5 8 10 11 13 15 17 20 22 21 22 24 25 25 25 25 29 32 35 39 41 37 34 35 34 34 33 31 27 23 20 22 26 29 30 30 30 31 31 31 33 34
10 13 13 12 12 14 16 20 22 19 16 17 20 22 21 20 21 19 17 15 14 14 15 13 9 8 10 9 8 8 9 9 9 9 9 8 7 8 9 9 7 7 7 5 3 3 5 7 9 11 13 16 21 24 22 21 22 24 23 22 21 22 21 25 32 37 36 34 32 30 30 31 32 29 26 22 19 18 22 25 24 25 26 26 25 28 30
9 11 12 13 14 15 16 17 17 16 15 16 17 19 20 21 21 20 18 15 12 11 12 13 11 10 10 9 8 8 9 8 8 8 8 8 8 8 9 10 9 8 6 4 3 3 3 4 6 8 10 14 19 25 26 24 23 24 24 23 22 20 17 17 21 25 29 31 30 29 29 29 29 29 28 26 24 21 19 19 18 18 19 19 18 21 24
9 10 13 15 15 13 12 12 14 17 20 19 18 18 21 21 21 21 19 15 12 10 10 11 12 13 10 7 7 7 6 8 10 9 7 7 9 9 9 10 10 9 6 4 3 3 2 2 2 4 6 8 13 20 25 25 25 25 26 26 25 24 24 24 20 19 23 27 29 30 30 29 29 28 27 29 29 28 25 22 18 17 16 15 14 16 19
8 8 11 13 13 13 14 14 16 20 21 20 18 19 21 21 21 20 18 15 15 14 12 11 12 13 11 9 8 6 6 8 10 9 7 7 10 11 11 10 10 9 7 4 4 4 4 3 1 1 2 5 8 13 17 21 23 24 24 24 26 29 32 32 27 22 24 28 30 32 32 31 30 29 28 30 31 31 29 27 23 21 20 18 17 16 17
9 8 8 8 10 14 16 17 18 18 18 18 17 17 18 20 20 18 17 18 17 16 13 12 12 12 12 11 10 8 7 8 9 9 8 9 11 12 12 11 12 12 11 9 7 5 4 3 3 4 3 3 7 10 12 15 19 21 22 23 25 26 28 29 28 27 28 28 29 31 31 29 27 26 26 28 28 27 27 26 25 23 22 21 19 17 16
11 11 10 9 11 14 15 15 16 17 17 17 18 16 17 19 19 17 17 18 16 13 13 14 13 12 11 11 11 9 8 8 9 9 10 12 14 14 12 10 11 13 15 14 11 7 5 5 5 5 4 5 8 11 13 15 18 21 24 25 25 24 24 25 26 27 27 26 27 29 29 28 27 27 25 25 26 25 25 24 24 24 25 25 22 19 18
14 14 14 13 13 13 13 14 15 16 17 18 17 17 17 18 17 15 16 17 16 13 12 12 11 11 11 10 10 10 9 8 9 10 10 12 14 13 11 9 8 9 11 11 10 10 9 7 7 6 5 5 8 13 17 20 22 23 24 24 26 27 27 27 27 28 27 26 26 28 29 29 29 30 28 25 24 25 24 23 24 26 28 28 25 23 23
16 17 17 15 13 13 13 13 14 15 16 16 16 17 18 18 18 17 17 17 16 14 13 12 11 10 10 11 12 13 11 10 10 12 12 11 12 11 9 8 6 6 6 7 8 10 11 12 11 9 7 7 8 14 19 22 24 25 25 26 29 31 31 30 29 29 29 29 27 26 27 27 27 29 29 25 23 23 24 24 24 26 27 25 20 22 27
18 19 18 15 14 15 14 13 14 16 18 17 16 17 16 16 17 17 16 16 17 15 14 14 11 9 11 13 13 12 11 10 10 13 12 11 11 11 10 9 9 8 8 9 9 10 13 14 12 9 9 10 11 13 17 20 23 26 27 29 31 31 31 32 31 30 30 31 28 26 25 24 24 26 26 25 24 23 24 23 22 22 22 20 17 22 29
16 17 17 16 16 17 17 15 15 17 18 17 15 15 14 13 14 14 14 15 17 15 12 12 12 12 13 13 11 9 8 8 9 11 13 12 12 12 12 12 12 12 13 13 11 10 13 15 12 9 9 12 14 15 16 19 23 25 27 30 31 30 30 31 32 31 31 30 28 27 26 24 24 24 25 26 25 23 23 23 22 20 19 17 18 23 28
13 14 16 16 16 17 18 18 16 16 16 16 14 14 14 13 14 14 14 15 16 16 13 13 16 16 13 11 9 8 8 7 6 8 10 12 13 13 13 12 14 16 16 14 12 12 14 14 12 11 12 13 15 16 18 20 23 24 25 28 29 29 29 29 30 30 29 27 27 28 26 24 24 24 24 25 24 23 23 23 22 22 20 17 18 21 23
14 15 16 16 15 15 17 17 16 16 16 17 15 14 13 13 14 15 15 15 17 18 17 17 18 17 13 9 8 8 8 7 6 7 10 12 13 13 12 12 13 15 16 16 14 14 15 13 11 11 14 15 16 17 18 20 23 25 26 28 28 28 28 27 27 27 27 27 27 27 25 24 24 24 24 24 23 23 23 23 23 22 20 17 17 19 19
16 15 15 15 16 17 16 15 15 15 15 15 15 14 14 14 16 16 17 18 20 21 18 16 15 14 11 7 6 7 8 7 6 7 10 11 12 11 11 13 12 12 13 13 12 11 13 12 10 10 13 16 18 19 20 21 23 25 27 28 29 28 26 25 25 25 24 25 26 26 25 25 25 25 25 24 22 20 21 22 22 22 20 19 19 20 19
18 18 17 16 17 19 18 16 16 17 16 16 16 16 15 16 18 19 20 22 22 20 17 14 11 10 10 9 7 6 6 6 6 7 8 9 10 10 11 12 12 10 8 8 9 10 11 11 10 10 12 14 17 19 20 22 24 25 25 26 27 26 25 24 23 22 21 23 26 28 28 27 27 25 24 23 21 20 20 21 21 20 20 20 21 21 20
21 22 21 20 20 21 20 20 20 20 18 18 18 18 18 19 20 21 21 21 20 18 15 13 10 8 9 9 7 5 7 8 8 8 7 7 8 9 10 10 9 8 6 7 8 8 8 9 10 11 11 12 14 16 19 21 24 25 26 26 27 26 25 24 24 23 23 24 27 28 28 28 27 25 23 23 23 23 23 22 22 21 20 19 19 19 19
20 20 21 21 20 20 22 22 21 20 19 17 16 18 20 22 21 21 20 20 20 17 14 12 10 7 6 5 4 5 8 9 9 8 8 6 6 7 9 9 8 6 5 7 7 7 7 8 11 14 14 13 14 15 18 20 23 25 27 28 28 28 27 26 26 25 24 25 26 27 28 27 26 25 24 24 24 24 23 22 21 21 20 19 18 17 17
16 17 19 20 19 19 19 19 18 19 20 18 17 18 20 21 21 20 18 17 17 15 12 10 8 5 3 3 4 6 8 8 8 7 7 6 5 5 8 9 9 7 5 6 7 7 7 8 12 15 17 16 15 15 17 21 25 26 26 28 30 30 29 28 28 27 26 25 26 25 25 25 25 24 24 23 23 22 21 20 19 18 17 17 16 15 15
16 19 21 20 19 19 19 19 18 19 20 19 19 21 22 21 19 17 14 14 14 14 11 8 6 5 4 4 4 5 6 8 9 9 8 6 5 4 5 8 9 7 5 6 6 6 6 9 12 15 16 17 17 16 18 23 27 26 25 28 31 31 30 30 29 27 26 26 25 24 23 23 22 21 21 20 19 19 18 17 16 15 14 13 13 13 12
19 21 21 19 19 20 21 21 19 19 19 20 21 21 21 20 16 13 11 11 13 11 8 6 5 5 5 3 3 4 6 8 9 10 11 10 8 6 4 6 9 8 5 4 4 5 6 9 11 14 16 17 19 19 20 24 27 27 27 28 31 31 30 30 28 26 25 24 23 23 22 21 20 19 18 17 16 15 14 13 13 12 12 12 12 12 12
21 21 18 16 18 20 22 21 20 18 18 20 21 21 19 17 14 10 8 8 9 8 6 5 4 3 3 3 4 5 6 6 6 7 8 10 13 13 10 8 9 9 6 4 4 6 8 9 11 13 15 17 19 20 22 24 26 27 28 29 30 29 29 28 26 24 23 22 22 21 21 20 19 18 16 14 13 13 12 11 11 12 12 12 11 12 12
22 20 18 18 21 22 21 20 19 16 16 19 22 21 17 14 11 8 5 5 5 4 4 5 4 4 4 6 6 5 5 5 6 6 4 5 10 15 16 12 11 10 9 8 7 7 9 10 11 12 14 16 18 20 22 24 25 26 27 28 28 28 27 25 23 21 21 21 22 22 22 21 20 18 16 15 14 13 13 12 12 12 12 12 12 12 12
21 20 20 21 22 21 20 19 19 18 19 22 23 18 13 11 10 7 3 3 4 5 7 6 5 5 7 8 8 7 7 9 11 10 7 3 5 10 14 14 13 13 14 14 13 11 11 11 11 11 12 13 15 18 21 24 25 26 26 27 28 28 27 26 24 24 24 24 23 23 23 22 20 18 17 16 14 13 13 13 12 12 12 12 12 11 11
21 21 21 22 21 21 21 22 23 23 22 19 14 10 11 12 10 5 2 6 7 8 10 9 8 7 9 9 7 6 9 13 16 16 13 9 8 10 14 16 16 15 17 19 18 16 14 13 11 10 11 11 12 15 19 22 23 25 26 27 27 28 28 27 27 26 26 25 24 24 24 24 23 20 18 16 14 12 11 11 11 12 12 11 12 12 12
21 21 20 21 21 22 23 23 22 20 16 11 7 8 11 12 9 6 6 9 10 10 12 13 12 10 11 11 8 5 6 9 13 15 16 15 14 16 18 18 18 19 20 21 20 17 15 13 11 10 11 12 14 16 18 18 19 22 24 26 26 27 27 26 26 25 24 23 23 23 23 24 23 21 18 16 13 10 8 8 10 11 12 12 13 13 12
20 20 20 21 22 22 22 21 16 13 11 9 10 11 10 7 8 7 8 12 14 14 16 19 18 16 16 16 14 11 9 7 6 8 12 16 18 19 19 19 19 20 21 22 22 19 16 13 12 12 14 16 19 20 21 20 20 21 23 25 26 26 25 24 23 22 21 21 20 20 20 21 21 20 17 15 12 8 6 7 9 10 11 12 13 12 11
20 20 20 20 19 19 18 15 10 9 11 12 14 14 9 5 8 8 9 12 16 17 18 19 19 19 20 20 18 17 17 15 12 11 14 18 20 20 20 21 21 20 21 23 24 22 19 17 16 16 17 19 21 21 21 21 21 22 22 24 25 24 24 22 21 20 19 18 19 19 19 19 18 16 14 12 10 8 7 9 10 11 11 12 11 10 8
19 19 18 18 17 17 16 13 10 11 13 14 13 12 9 6 7 7 8 9 11 13 16 18 19 19 21 21 20 19 20 20 19 19 20 21 22 22 22 22 23 23 23 24 24 23 21 20 20 20 20 22 22 22 22 22 22 22 22 22 22 21 20 20 19 19 18 18 18 18 17 16 14 12 11 9 7 6 7 10 12 12 11 11 9 7 5
17 17 18 17 17 17 17 16 16 17 16 14 14 14 12 9 7 9 9 8 6 7 12 15 17 18 20 21 21 20 21 21 21 22 24 24 24 25 25 26 27 27 27 27 27 25 23 23 23 23 24 24 24 24 24 24 24 24 23 22 22 21 20 20 20 20 19 18 18 18 17 16 14 13 11 9 8 8 9 11 11 10 8 8 7 6 5
17 18 19 18 16 16 17 20 22 22 20 18 18 18 15 10 9 10 11 11 10 9 10 11 12 15 18 19 19 19 21 22 23 24 25 25 26 26 27 29 30 30 30 30 30 29 27 26 26 26 26 27 27 26 26 26 26 25 25 24 24 23 23 23 22 22 21 19 18 18 17 16 15 13 11 9 9 10 10 9 9 8 6 6 6 6 5
Wind_Direction
256 264 261 241 238 245 246 243 243 245 243 230 230 238 244 242 240 253 261 257 254 264 271 279 293 304 295 287 286 282 283 286 281 272 270 268 265 267 268 266 268 264 240 212 196 195 198 194 190 187 189 192 191 190 190 188 187 189 188 186 187 190 189 187 187 187 188 187 183 180 182 186 188 186 189 195 199 203 205 204 205 205 203 203 202 201 203
273 269 253 233 228 234 236 237 243 244 242 239 240 248 254 251 248 256 269 279 276 272 278 290 304 311 290 277 283 284 287 291 291 290 282 271 269 273 270 270 280 270 245 221 196 188 193 194 192 190 190 190 189 188 187 185 186 187 185 184 185 187 188 188 188 186 183 181 181 181 183 186 186 186 190 195 198 202 204 204 205 204 202 202 201 201 202
286 266 240 238 229 227 231 242 249 246 245 249 249 252 255 255 257 260 266 274 274 274 287 298 297 296 281 274 286 291 293 297 299 298 293 283 279 279 276 283 293 269 239 224 202 186 188 194 192 191 191 189 188 187 184 183 184 183 181 181 184 185 186 188 187 182 177 178 181 181 182 183 183 187 191 194 197 200 201 203 204 203 202 201 200 201 203
304 168 16 324 222 199 219 245 259 258 253 252 253 254 247 240 248 259 261 261 267 285 332 315 293 290 282 280 291 297 299 300 300 299 297 291 286 283 286 295 292 269 227 213 207 194 189 190 192 192 190 188 188 187 186 185 183 181 179 180 183 186 185 184 181 177 176 179 179 179 180 181 183 187 190 191 194 196 197 201 201 200 201 200 199 201 203
305 334 20 39 122 129 186 259 271 269 257 253 258 262 255 241 241 254 260 261 277 313 330 313 301 302 295 290 300 303 300 299 299 296 292 289 287 285 289 293 287 277 240 207 207 204 193 188 192 193 189 187 188 188 188 186 182 180 179 180 182 185 183 179 177 177 177 178 177 178 180 181 182 184 185 186 189 190 194 198 198 197 198 198 198 200 202
299 323 346 307 156 87 38 331 167 227 269 276 272 267 267 266 260 261 270 282 300 314 313 305 303 304 301 299 299 294 287 285 287 286 284 283 284 286 291 293 288 287 277 219 205 206 198 189 191 193 191 190 190 188 186 183 179 178 179 179 180 181 178 177 178 178 178 178 177 178 178 178 180 184 184 184 185 187 193 195 194 195 196 195 196 199 201
291 318 336 305 104 67 23 259 228 233 259 268 267 268 271 267 262 274 295 305 311 312 308 302 299 299 299 297 292 285 275 266 267 273 280 288 293 297 304 307 305 308 306 256 210 205 200 190 187 190 191 189 184 179 177 176 175 178 180 180 179 178 177 179 179 178 177 178 177 176 177 179 181 183 184 185 188 191 193 193 192 194 195 194 195 197 200
308 319 333 345 342 260 253 260 265 275 277 268 260 271 272 251 246 338 346 327 316 316 311 301 296 298 300 297 288 274 261 256 254 267 287 300 308 309 308 308 310 314 308 275 221 202 197 190 186 188 189 184 174 168 170 172 175 179 181 180 178 177 178 180 180 178 178 178 175 173 175 179 181 181 183 186 189 190 190 190 192 193 193 193 194 195 198
337 324 314 300 265 293 321 321 317 320 319 306 280 271 292 226 232 342 337 318 312 318 314 307 302 302 304 301 291 260 229 237 261 287 297 306 314 312 305 305 307 306 296 273 228 199 190 188 188 188 187 182 175 170 173 174 175 178 181 179 178 178 180 182 182 180 178 177 174 173 174 178 180 181 183 185 186 186 186 188 190 190 190 193 194 193 195
337 330 318 312 346 347 343 336 332 332 330 325 300 227 263 213 228 320 325 318 316 315 308 304 302 304 306 294 287 271 232 261 291 304 308 315 318 313 307 307 308 301 285 263 225 198 188 187 188 185 182 180 175 173 175 175 174 177 180 181 179 179 182 183 182 180 179 178 175 173 175 179 181 180 181 183 186 186 186 187 188 189 190 191 193 193 191
349 351 344 347 7 0 320 334 338 335 332 334 333 190 221 282 322 324 322 319 316 306 297 299 302 310 316 292 286 302 301 299 307 315 321 327 325 318 313 310 309 299 277 245 209 193 188 188 187 182 178 176 174 174 176 175 174 176 180 182 182 182 183 183 181 179 179 179 177 175 177 180 181 180 180 183 186 187 187 187 187 190 192 191 192 194 192
356 357 349 338 334 269 307 342 344 333 324 321 314 273 309 334 327 321 316 316 316 311 308 311 310 312 302 287 293 303 304 304 312 322 327 329 328 324 320 317 315 301 266 223 193 188 189 188 184 179 177 176 175 177 178 177 177 180 183 184 184 183 182 180 179 178 179 179 178 177 179 182 182 181 180 182 185 186 188 188 188 189 191 191 193 196 194
355 358 347 325 284 260 331 348 342 326 314 313 338 335 322 318 315 310 307 309 308 308 313 312 306 298 281 280 290 297 301 305 313 324 330 328 324 320 315 313 314 295 247 208 190 190 189 185 182 178 178 178 177 176 177 178 182 186 185 184 184 182 179 177 177 178 179 179 177 177 180 182 182 182 182 183 185 186 187 187 186 187 189 191 194 196 195
353 350 333 319 293 51 354 343 334 327 326 334 331 312 305 306 306 305 308 306 302 306 306 291 288 299 301 299 297 296 299 306 314 325 332 329 321 316 310 309 311 286 241 212 195 193 187 182 180 178 177 177 174 173 176 182 185 185 183 182 182 179 175 174 175 176 177 178 176 176 180 182 182 182 182 184 186 187 186 185 186 187 188 191 193 193 195
342 337 343 347 327 334 347 340 334 344 350 325 303 303 306 307 307 309 311 307 302 303 299 292 299 306 309 311 308 302 304 310 316 325 333 334 326 320 315 317 324 321 262 223 202 194 186 181 179 176 175 175 172 174 183 187 185 182 180 179 178 175 173 173 175 177 177 176 175 176 181 184 182 179 179 184 186 185 181 181 183 185 187 188 187 187 192
349 336 341 340 299 303 328 336 319 307 305 293 290 303 307 306 308 311 309 301 298 297 299 305 311 311 311 313 314 310 311 313 317 325 335 339 332 325 320 322 328 328 278 234 213 195 186 185 183 178 175 173 173 178 185 183 178 176 175 174 170 169 172 174 174 176 178 177 176 178 182 183 180 176 178 182 183 182 178 176 177 180 184 185 182 180 184
311 294 285 279 282 294 310 312 292 289 294 297 298 298 297 298 303 308 304 297 296 299 306 311 312 311 310 313 315 312 308 310 317 325 332 340 337 331 324 324 330 332 293 247 227 199 189 188 186 183 179 175 177 183 182 178 175 173 167 159 152 156 166 173 176 178 179 176 175 180 183 179 175 176 178 178 177 178 176 174 175 178 181 183 182 180 178
296 276 270 276 294 311 313 306 293 287 297 307 308 305 305 303 303 307 304 297 296 300 306 310 312 312 312 313 315 311 305 308 316 322 328 340 345 340 337 333 331 330 301 241 226 207 196 192 190 190 188 184 182 181 178 177 179 177 169 161 159 164 170 174 175 174 169 166 172 181 182 177 175 177 177 173 173 174 174 174 177 179 179 178 178 177 176
320 304 298 308 318 319 311 302 301 311 319 323 325 324 320 313 310 309 306 303 304 304 302 304 308 309 310 312 310 307 305 310 316 322 330 343 349 347 351 346 330 325 310 236 221 213 204 199 196 196 195 192 187 180 179 181 181 177 170 165 165 168 170 169 169 170 169 171 177 182 181 177 176 176 176 176 175 174 177 178 178 177 177 176 173 173 175
310 300 311 320 316 306 291 283 299 323 331 330 329 327 323 318 314 313 310 308 308 306 303 304 306 306 308 309 307 304 307 311 318 328 335 341 346 349 356 356 334 322 315 260 224 213 207 204 201 201 199 193 184 178 179 182 180 173 168 165 163 166 168 169 172 175 177 177 178 178 179 180 179 175 176 178 177 178 183 183 179 179 181 179 178 180 180
304 303 319 328 323 312 310 319 323 329 333 330 327 327 327 326 325 325 324 321 317 315 311 308 306 305 307 308 306 303 306 313 325 337 339 339 345 351 353 353 345 329 319 291 241 221 214 208 203 202 200 191 181 176 177 180 180 174 169 167 166 167 169 172 175 176 176 176 176 175 176 179 180 179 180 182 182 185 189 190 189 189 187 185 185 186 185
319 319 325 332 330 320 321 323 321 324 328 326 325 327 329 328 327 327 326 323 322 322 319 315 311 308 307 311 309 305 310 325 333 340 343 339 345 354 354 351 350 347 339 311 258 230 220 212 203 202 201 192 184 183 182 183 184 179 173 171 172 172 172 173 174 175 174 174 175 174 172 172 174 176 181 187 189 187 187 190 193 195 194 193 195 193 191
304 305 312 322 319 302 302 308 310 316 325 327 327 327 326 324 324 325 324 321 319 319 319 323 321 307 303 307 309 309 323 339 340 342 345 343 346 356 359 359 1 6 7 346 290 237 220 214 204 199 197 190 186 187 187 187 188 184 176 174 177 179 179 176 173 172 172 173 172 171 169 169 168 166 165 172 180 184 186 187 190 192 194 197 200 199 198
294 300 309 314 307 298 299 302 305 311 322 327 325 323 323 324 325 324 320 315 313 315 318 322 326 319 312 315 322 332 345 350 346 341 342 345 350 356 3 9 12 14 19 9 333 278 230 217 206 199 196 190 189 192 193 191 190 185 180 180 182 184 187 183 174 169 167 168 168 166 164 165 165 162 154 146 148 165 181 186 187 189 192 196 199 200 202
293 301 310 308 298 292 294 299 303 310 321 325 323 321 323 326 326 324 319 312 309 311 314 318 326 331 327 327 337 348 352 348 342 341 341 345 356 7 10 10 6 3 8 6 340 315 276 242 222 208 200 194 193 194 195 194 191 185 181 182 182 180 180 181 176 167 162 160 161 161 160 161 163 162 157 150 143 142 153 168 177 182 187 193 196 197 199
297 303 310 307 299 296 303 312 316 320 324 326 324 323 325 326 324 321 317 312 312 318 318 318 323 327 329 334 339 342 341 338 341 351 355 352 2 16 15 6 359 355 353 350 345 353 356 310 261 229 214 206 198 196 197 197 193 188 184 181 179 178 177 175 172 165 158 156 156 158 160 162 165 164 162 160 154 146 143 147 152 158 165 173 180 185 188
316 321 322 318 315 319 324 323 317 316 318 320 321 322 322 323 322 322 321 324 329 331 324 316 320 328 335 345 347 343 343 343 347 354 357 354 3 12 11 10 9 3 359 7 28 47 58 61 87 166 214 224 212 205 203 199 193 189 184 177 174 176 176 172 166 160 158 158 158 159 161 165 168 167 164 162 159 155 152 151 148 146 150 156 163 171 176
320 326 325 312 304 306 308 308 307 308 311 315 318 320 321 323 327 331 336 336 334 330 325 326 334 340 345 350 351 349 349 352 354 355 353 353 358 3 7 19 28 28 26 30 42 69 94 105 126 137 149 198 207 204 198 188 179 174 169 165 164 166 165 161 157 155 158 160 161 161 162 164 163 160 159 160 158 154 153 152 147 143 143 148 155 163 168
324 326 320 301 288 289 295 303 308 311 314 318 322 325 330 332 333 334 337 336 331 324 326 331 337 343 348 352 353 347 342 347 351 351 353 359 0 359 0 13 34 44 42 36 34 45 66 86 102 106 112 145 167 175 173 165 157 154 156 155 151 146 144 145 147 148 151 155 158 158 158 157 153 151 153 157 155 150 147 147 145 142 142 145 149 154 160
322 321 315 307 301 300 306 312 314 316 320 322 324 329 335 336 333 329 331 333 329 324 324 326 331 340 346 350 350 341 329 333 344 348 356 8 11 7 3 4 21 42 46 42 38 39 43 55 71 74 74 106 143 156 159 154 149 148 149 146 141 140 143 146 146 145 146 148 150 151 151 150 150 151 153 154 151 147 145 146 146 144 145 148 151 154 157
314 313 310 308 310 315 321 321 317 316 320 321 323 329 335 336 333 329 329 331 328 322 320 321 328 339 339 336 340 339 329 330 350 358 2 14 21 19 16 18 25 34 47 57 62 63 57 47 43 55 77 98 125 143 148 147 144 142 139 138 139 144 148 148 146 144 145 144 143 143 144 145 148 150 150 147 144 143 143 145 146 148 150 151 154 159 161
316 316 317 320 323 325 326 325 320 319 320 321 323 327 332 333 329 323 321 324 322 318 316 317 321 332 332 325 332 344 339 332 352 5 5 11 23 26 25 30 36 39 48 55 62 76 80 68 53 58 94 111 122 134 138 137 136 135 135 136 137 141 144 144 142 141 142 142 141 141 142 144 147 147 145 144 144 145 146 147 148 152 155 154 157 165 168
320 321 322 324 325 322 320 322 321 318 316 317 318 319 321 323 321 315 314 317 317 314 313 312 313 322 327 321 324 346 347 334 351 10 6 1 12 23 27 33 39 45 55 61 60 67 81 86 86 93 109 121 128 131 131 132 133 132 133 134 134 134 137 140 140 139 138 138 140 142 143 145 147 147 146 147 148 149 151 151 152 155 156 157 163 171 174
310 309 308 310 312 312 312 314 316 313 311 311 310 311 314 316 316 312 310 312 313 311 310 309 311 316 322 320 323 346 0 356 0 6 356 351 1 15 26 37 42 43 50 60 68 71 74 81 94 106 111 118 125 127 127 130 131 128 127 128 129 129 131 133 135 135 134 133 138 142 143 145 147 147 147 147 148 150 152 154 156 157 157 157 165 172 177
303 303 303 304 303 300 301 304 306 306 307 307 306 307 310 310 309 308 307 307 310 309 306 307 310 313 316 322 331 350 8 12 1 349 347 354 2 12 28 43 46 45 46 51 62 79 85 86 96 106 106 108 116 122 125 126 126 124 125 126 126 127 128 130 132 133 132 133 136 139 139 141 143 144 144 144 145 148 150 152 155 157 154 153 159 166 171
312 310 309 308 305 302 299 299 299 299 300 301 301 303 304 302 302 305 305 306 308 307 304 304 308 312 316 325 339 349 357 1 354 346 353 3 8 15 31 41 41 44 48 45 46 65 82 85 89 100 106 109 117 125 129 130 127 126 127 127 126 126 126 126 126 128 130 133 136 137 138 139 139 140 142 142 142 144 147 149 152 154 151 149 153 157 161
317 313 310 309 308 304 300 298 298 298 297 296 295 296 296 297 301 304 305 305 304 302 299 301 304 310 314 316 322 340 355 2 2 0 6 16 22 27 35 36 31 33 43 36 29 46 72 85 91 98 106 111 117 125 132 134 132 129 127 125 123 123 122 122 123 125 129 133 135 135 136 135 135 136 139 140 140 141 143 144 145 145 145 146 151 155 158
316 314 312 311 310 307 305 304 303 301 296 293 293 294 293 294 299 303 303 302 298 295 297 303 304 305 308 309 319 355 11 7 10 21 29 31 30 36 42 34 20 15 21 20 22 42 73 94 102 105 108 112 117 124 134 137 136 133 131 129 126 125 124 123 125 128 130 131 133 133 133 132 132 133 134 135 137 138 139 139 139 140 143 146 151 156 160
317 317 316 314 311 308 307 307 306 301 294 290 292 294 294 295 298 300 300 298 294 294 303 315 315 309 306 310 335 11 9 359 7 30 43 36 31 52 61 47 22 6 9 21 36 63 85 94 102 109 115 118 121 128 137 142 140 137 135 133 130 128 127 127 128 129 130 131 131 132 133 133 133 133 133 134 135 135 135 135 136 139 142 146 151 157 162
320 319 318 315 311 307 306 305 304 300 295 291 289 290 292 296 300 300 298 294 293 297 312 324 320 313 323 344 357 7 5 358 2 22 35 28 27 62 70 49 29 27 42 48 58 81 94 97 104 111 114 118 127 136 142 143 140 136 134 134 133 131 130 130 130 130 131 132 133 133 133 133 133 133 134 134 136 137 138 140 142 145 148 151 154 159 162
318 318 317 315 311 307 307 306 303 301 300 297 291 289 292 295 297 297 294 291 295 306 326 341 335 324 336 357 9 18 20 18 23 35 41 30 17 43 63 41 26 34 67 71 64 78 93 98 106 112 114 120 133 143 143 139 137 135 133 133 132 130 130 131 132 133 134 134 134 133 133 132 131 132 133 134 136 138 141 145 149 153 155 156 158 160 162
319 319 318 315 311 309 310 310 307 304 303 300 295 292 295 298 298 295 294 297 304 317 343 9 7 346 341 354 24 40 41 39 41 48 52 46 32 28 36 28 25 38 69 79 60 68 88 99 109 118 122 127 137 144 143 138 135 133 130 128 128 129 131 132 132 133 135 134 133 133 133 131 131 133 134 134 135 137 139 142 146 149 153 157 160 162 162
318 317 316 314 313 312 311 310 308 305 303 300 297 298 303 305 299 294 300 310 317 331 1 34 38 21 9 19 38 47 48 46 44 46 54 58 52 45 39 31 33 45 70 92 78 78 94 108 116 121 122 125 131 136 135 132 129 128 128 128 128 129 130 130 131 132 133 133 133 135 135 134 134 135 135 134 134 137 139 140 142 145 149 153 156 158 159
317 317 316 316 315 314 312 310 309 307 305 302 300 301 307 310 306 304 320 338 342 359 35 53 56 51 45 45 45 41 34 33 36 35 37 56 52 44 42 45 53 61 76 95 102 99 105 114 122 124 125 126 130 132 130 128 126 126 127 128 129 129 129 130 131 131 132 133 134 135 135 134 133 133 134 134 135 138 140 140 142 146 147 146 147 153 157
318 318 318 317 315 314 313 312 309 304 301 298 295 297 312 328 323 315 336 43 48 51 58 58 53 56 63 64 63 62 58 55 54 52 50 51 40 36 42 55 67 72 77 86 95 101 109 119 127 129 127 127 130 132 130 128 128 128 128 129 131 131 131 130 129 128 128 129 129 129 129 127 125 124 125 127 130 134 139 142 144 145 144 142 144 150 154
321 322 322 320 319 317 315 313 310 306 304 301 297 305 333 344 338 329 56 85 79 74 72 63 49 51 67 75 78 81 76 69 65 62 62 66 67 61 63 70 76 78 81 84 87 90 99 111 120 122 122 125 133 137 135 131 130 130 130 129 129 127 126 124 124 124 125 126 126 126 125 122 118 114 112 111 112 118 128 138 143 146 146 146 151 155 155
325 326 325 323 323 321 320 320 319 317 317 322 326 327 336 349 359 14 52 70 73 73 76 73 63 57 66 71 67 62 68 68 63 60 63 70 77 79 79 81 81 81 82 83 83 85 94 107 113 117 123 128 131 131 129 126 125 126 126 125 124 123 122 123 125 126 127 129 130 130 126 121 114 109 104 99 95 98 112 132 144 149 151 154 159 162 161
329 329 328 327 326 326 327 330 332 329 328 334 330 320 327 8 38 38 53 72 74 70 73 76 71 66 68 70 66 60 64 69 60 52 60 70 77 79 79 81 83 83 82 82 80 81 89 101 108 115 123 127 124 121 121 122 123 123 123 122 122 123 125 127 129 130 131 131 130 128 125 121 117 114 110 104 96 93 103 122 136 146 153 156 158 161 161
331 331 331 331 330 330 332 335 337 334 333 334 329 323 331 40 66 51 54 75 80 75 72 72 69 66 68 70 68 66 72 78 81 78 75 77 80 80 78 80 83 84 83 82 80 80 84 93 100 106 112 115 113 111 113 116 119 119 120 121 124 127 131 133 134 133 131 129 127 127 128 128 126 124 121 112 100 93 102 113 118 123 132 137 138 139 140
335 336 337 336 335 337 339 340 336 331 331 334 339 346 4 51 68 50 46 67 81 79 72 68 64 64 67 69 67 68 73 79 82 83 83 82 82 82 80 80 80 82 83 83 82 81 84 89 94 97 101 103 103 103 106 109 110 110 112 114 118 121 125 130 132 132 131 131 130 127 124 122 122 122 122 113 99 94 111 120 120 120 121 121 118 114 116
336 338 337 332 329 335 343 348 347 343 342 349 6 21 33 47 52 45 43 48 58 69 71 66 59 57 63 68 68 69 72 76 79 80 81 81 81 80 80 80 80 80 81 81 80 80 81 83 87 92 95 95 96 98 101 104 105 105 106 108 110 113 116 121 124 126 128 129 128 124 120 118 117 117 115 111 107 109 116 120 120 120 122 124 125 126 132
338 339 337 334 334 341 353 359 360 359 2 11 24 33 39 41 40 40 40 36 34 46 66 71 60 53 57 65 68 68 69 73 75 75 75 76 77 77 77 78 77 76 76 77 77 78 79 81 84 87 90 91 92 93 96 99 101 102 103 105 107 110 113 116 118 120 121 121 120 119 119 120 119 114 109 106 108 113 115 116 117 122 132 142 150 156 158